Weather History for KCRE - September, 2013

Change the Weather History Date:

Saturday, September 14, 2013

  Actual Average Record
Temperature  
Mean Temperature 76 °F 76 °F  
Max Temperature 84 °F 84 °F 91 °F (1991)
Min Temperature 67 °F 68 °F 53 °F (1953)
Degree Days  
Heating Degree Days 0 0  
Month to date heating degree days 0 0  
Since 1 July heating degree days 0 0  
Cooling Degree Days 11 11  
Month to date cooling degree days 189 169  
Year to date cooling degree days 1640 1645  
Growing Degree Days 25 (Base 50)    
Moisture  
Dew Point 63 °F    
Average Humidity 69    
Maximum Humidity 87    
Minimum Humidity 51    
Precipitation  
Precipitation 0.00 in 0.21 in 4.22 in (2005)
Month to date precipitation 0.02 3.38  
Year to date precipitation 40.78 38.73  
Sea Level Pressure  
Sea Level Pressure 29.96 in    
Wind  
Wind Speed 9 mph (NNE)    
Max Wind Speed 17 mph    
Max Gust Speed 22 mph    
Visibility 10 miles    
Events      
T = Trace of Precipitation, MM = Missing Value Source: NWS Daily Summary

Daily Weather History Graph

Daily Weather History Graph

Search for Another Location

Airport or City:

Trip Planner

Search our weather history database for the weather conditions in past years. The results will help you decide how hot, cold, wet, or windy it might be!

Date:

Astronomy

Sep. 14, 2013 Rise Set
Actual Time 6:57 AM EDT 7:22 PM EDT
Civil Twilight 6:32 AM EDT 7:47 PM EDT
Nautical Twilight 6:03 AM EDT 8:16 PM EDT
Astronomical Twilight 5:33 AM EDT 8:46 PM EDT
Moon 3:52 PM EDT (9/14) 1:38 AM EDT (9/14)
Length of Visible Light 13h 14m
Length of Day
12h 24m
Waxing Gibbous, 72% of the Moon is Illuminated
Sep 14
Waxing Gibbous
Sep 19
Full
Sep 26
Last Quarter
Oct 4
New
Oct 11
First Quarter

Hourly Weather History & Observations

Time (EDT) Temp. Heat Index Dew Point Humidity Pressure Visibility Wind Dir Wind Speed Gust Speed Precip Events Conditions
12:53 AM 72.0 °F - 64.0 °F 76% 29.82 in 10.0 mi North 5.8 mph - N/A   Clear
1:53 AM 71.1 °F - 61.0 °F 70% 29.81 in 10.0 mi North 8.1 mph - N/A   Clear
2:53 AM 69.1 °F - 61.0 °F 75% 29.83 in 10.0 mi NNE 9.2 mph - N/A   Clear
3:53 AM 69.1 °F - 63.0 °F 81% 29.85 in 10.0 mi NNE 10.4 mph - N/A   Overcast
4:53 AM 69.1 °F - 63.0 °F 81% 29.85 in 10.0 mi NNE 9.2 mph - N/A   Mostly Cloudy
5:53 AM 68.0 °F - 64.0 °F 87% 29.87 in 10.0 mi NNE 5.8 mph - N/A   Partly Cloudy
6:53 AM 68.0 °F - 64.0 °F 87% 29.89 in 10.0 mi NE 10.4 mph - N/A   Clear
7:53 AM 69.1 °F - 64.0 °F 84% 29.91 in 10.0 mi NNE 12.7 mph - N/A   Partly Cloudy
8:53 AM 71.1 °F - 61.0 °F 70% 29.94 in 10.0 mi NE 15.0 mph 21.9 mph N/A   Scattered Clouds
9:53 AM 73.0 °F - 60.1 °F 64% 29.96 in 10.0 mi NNE 12.7 mph 19.6 mph N/A   Partly Cloudy
10:53 AM 73.9 °F - 59.0 °F 59% 29.97 in 10.0 mi North 12.7 mph - N/A   Clear
11:53 AM 75.9 °F - 60.1 °F 58% 29.98 in 10.0 mi NNE 13.8 mph - N/A   Partly Cloudy
12:53 PM 79.0 °F - 62.1 °F 56% 29.99 in 10.0 mi NE 9.2 mph - N/A   Partly Cloudy
1:53 PM 81.0 °F 82.2 °F 63.0 °F 54% 29.99 in 10.0 mi NE 10.4 mph - N/A   Clear
2:53 PM 82.0 °F 83.1 °F 63.0 °F 52% 29.99 in 10.0 mi NNE 10.4 mph - N/A   Clear
3:53 PM 82.9 °F 84.4 °F 64.0 °F 53% 29.98 in 10.0 mi NNE 6.9 mph - N/A   Scattered Clouds
4:53 PM 79.0 °F - 66.0 °F 64% 29.99 in 10.0 mi East 6.9 mph - N/A   Mostly Cloudy
5:53 PM 79.0 °F - 66.9 °F 66% 30.00 in 10.0 mi Variable 3.5 mph - N/A   Overcast
6:53 PM 77.0 °F - 64.0 °F 64% 30.01 in 10.0 mi NE 8.1 mph - N/A   Partly Cloudy
7:53 PM 72.0 °F - 64.9 °F 78% 30.03 in 10.0 mi NE 5.8 mph - N/A   Partly Cloudy
8:53 PM 72.0 °F - 64.9 °F 78% 30.06 in 10.0 mi NNE 6.9 mph - N/A   Clear
9:53 PM 71.1 °F - 64.9 °F 81% 30.08 in 10.0 mi NE 5.8 mph - N/A   Mostly Cloudy
10:53 PM 71.1 °F - 64.0 °F 78% 30.09 in 10.0 mi NNE 5.8 mph - N/A   Mostly Cloudy
11:53 PM 69.1 °F - 64.0 °F 84% 30.09 in 10.0 mi NNE 8.1 mph - N/A   Partly Cloudy